Location: Bottens
(46.6171°N, 6.6605°E)
Time: 09:33:20
(UTC+00:00)

ATLAS 5 CENTAUR R/B - Pass Details

Date: 04 November 2021
Orbit: 497 x 1159 km, 63.4° (Epoch: 25 November)

Event Time Altitude Azimuth Distance (km) Brightness Sun altitude
Rises 17:46:59 0° 312° (NW) 2,889 5.6 -16.4°
Reaches altitude 10° 17:50:53 10° 348° (NNW) 2,135 4.4 -17.0°
Maximum altitude 17:52:27 11° 7° (N) 2,106 4.2 -17.3°
Drops below altitude 10° 17:54:05 10° 25° (NNE) 2,269 4.2 -17.6°
Enters shadow 17:54:15 10° 27° (NNE) 2,294 4.2 -17.6°
